sat.trackr.live / text

‹ back to catalog

STARLINK-35483

NORAD 66252 · 2025-245U

PAYLOAD ACTIVE UNKNOWN

§ Identity

Operator
Country
US
Launch date
2025-10-29
Launch site
AFETR
Launch vehicle
Mass (kg)
RCS (m²)

Purposes: comms

External: N2YO · Heavens-Above · Gunter

§ Orbital elements

Epoch: 2026-05-24T16:09:20.381184Z

Period
94.17 min
Inclination
53.1599°
Eccentricity
0.0008093
Mean motion
15.29097399 rev/d
Perigee alt
473.0 km
Apogee alt
484.1 km
Semi-major
6,856.6 km
B*
-2.4878e-2
RAAN
290.6884°
Arg perigee
79.3826°
Mean anomaly
280.8086°
Rev number
3,284

§ Raw data

STARLINK-354831 66252U 25245U   26144.67315256 -.00662420  00000+0 -24878-1 0  99922 66252  53.1599 290.6884 0008093  79.3826 280.8086 15.29097399 32840

JSON: /api/v1/satellites/66252 · /tle

For live sub-satellite position, see the globe view (requires WebGL).

§ Visibility from observer

Set your observer location to see the next 7 days of passes ≥ 10°. The values pass through the URL so the page stays shareable.

No JS? Fill the form by hand. The geolocation button needs JavaScript.